Location: Bartshausen
(51.8454°N, 9.8167°E)
Time: 10:08:18
(UTC+00:00)

Iridium 4 Rocket - Pass Details

Date: 19 February 2026
Orbit: 579 x 887 km, 86.9° (Epoch: 8 March)

Event Time Altitude Azimuth Distance (km) Brightness Sun altitude
Rises 19:05:08 0° 355° (N) 3,053 6.8 -22.6°
Reaches altitude 10° 19:07:29 10° 355° (N) 2,087 5.9 -23.0°
Maximum altitude 19:12:04 85° 270° (W) 634 3.0 -23.7°
Enters shadow 19:12:57 56° 186° (S) 737 3.3 -23.8°
